QPF
0.00 0.00 0.00 0.00 0.00 0.00 0.00 0.00 0.00 0.00 0.00 0.00 0.00 0.00 0.00 0.00 0.00 0.00 0.00 0.00 0.00 0.00 0.00 0.00 0.00 0.00 0.01 0.01 0.01 0.01 0.00 0.01 0.00 0.00 0.01 0.01 0.01 0.02 0.04 0.03 0.03 0.04 0.05
0.00 0.00 0.00 0.00 0.00 0.00 0.00 0.00 0.00 0.00 0.00 0.00 0.00 0.00 0.00 0.00 0.00 0.00 0.00 0.00 0.00 0.00 0.00 0.00 0.00 0.00 0.00 0.00 0.00 0.00 0.00 0.00 0.00 0.01 0.01 0.01 0.02 0.03 0.03 0.02 0.01 0.04 0.05
0.00 0.00 0.00 0.00 0.00 0.00 0.00 0.00 0.00 0.00 0.00 0.00 0.00 0.00 0.00 0.00 0.00 0.00 0.00 0.00 0.00 0.00 0.00 0.00 0.00 0.00 0.00 0.00 0.00 0.00 0.00 0.00 0.01 0.01 0.01 0.00 0.01 0.03 0.03 0.02 0.01 0.03 0.02
0.00 0.00 0.00 0.00 0.00 0.00 0.00 0.00 0.00 0.00 0.00 0.00 0.00 0.00 0.00 0.00 0.00 0.00 0.00 0.00 0.00 0.00 0.00 0.00 0.00 0.00 0.00 0.00 0.00 0.00 0.00 0.00 0.01 0.01 0.00 0.00 0.01 0.02 0.02 0.01 0.01 0.02 0.01
0.00 0.00 0.00 0.00 0.00 0.00 0.00 0.00 0.00 0.00 0.00 0.00 0.00 0.00 0.00 0.00 0.00 0.00 0.00 0.00 0.00 0.00 0.00 0.00 0.00 0.00 0.00 0.00 0.00 0.00 0.00 0.01 0.01 0.01 0.00 0.00 0.00 0.02 0.01 0.01 0.01 0.01 0.01
0.00 0.00 0.00 0.00 0.00 0.00 0.00 0.00 0.00 0.00 0.00 0.00 0.00 0.00 0.00 0.00 0.00 0.00 0.00 0.00 0.00 0.00 0.00 0.00 0.00 0.00 0.00 0.00 0.00 0.00 0.00 0.02 0.01 0.01 0.01 0.01 0.00 0.02 0.01 0.01 0.01 0.00 0.01
0.00 0.00 0.00 0.00 0.00 0.00 0.00 0.00 0.00 0.00 0.00 0.00 0.00 0.00 0.00 0.00 0.00 0.00 0.00 0.00 0.00 0.00 0.00 0.00 0.00 0.00 0.00 0.00 0.00 0.00 0.00 0.01 0.00 0.00 0.00 0.00 0.00 0.02 0.02 0.01 0.01 0.00 0.00
0.00 0.00 0.00 0.00 0.00 0.00 0.00 0.00 0.00 0.00 0.00 0.00 0.00 0.00 0.00 0.00 0.00 0.00 0.00 0.00 0.00 0.00 0.00 0.00 0.00 0.00 0.00 0.00 0.00 0.00 0.00 0.00 0.00 0.00 0.00 0.00 0.00 0.02 0.03 0.02 0.01 0.00 0.00
0.00 0.00 0.00 0.00 0.00 0.00 0.00 0.00 0.00 0.00 0.00 0.00 0.00 0.00 0.00 0.00 0.00 0.00 0.00 0.00 0.00 0.00 0.00 0.00 0.01 0.01 0.00 0.00 0.00 0.00 0.00 0.00 0.00 0.00 0.00 0.00 0.01 0.02 0.03 0.03 0.02 0.01 0.00
0.00 0.00 0.00 0.00 0.00 0.01 0.00 0.00 0.01 0.01 0.01 0.01 0.01 0.01 0.01 0.01 0.01 0.02 0.01 0.01 0.01 0.01 0.01 0.01 0.02 0.02 0.01 0.01 0.01 0.01 0.01 0.01 0.01 0.00 0.01 0.01 0.01 0.02 0.03 0.03 0.03 0.02 0.01
0.00 0.00 0.00 0.00 0.00 0.00 0.00 0.01 0.01 0.01 0.01 0.01 0.01 0.01 0.01 0.01 0.01 0.01 0.01 0.01 0.01 0.01 0.02 0.03 0.04 0.03 0.02 0.01 0.01 0.01 0.02 0.01 0.01 0.00 0.00 0.00 0.01 0.03 0.04 0.05 0.04 0.02 0.02
0.01 0.01 0.00 0.00 0.00 0.01 0.02 0.02 0.01 0.01 0.01 0.02 0.02 0.01 0.01 0.01 0.01 0.01 0.01 0.02 0.02 0.03 0.05 0.05 0.06 0.06 0.05 0.04 0.03 0.02 0.02 0.01 0.01 0.00 0.00 0.00 0.01 0.04 0.06 0.07 0.06 0.04 0.03
0.02 0.01 0.01 0.01 0.01 0.02 0.03 0.02 0.01 0.01 0.02 0.02 0.02 0.02 0.02 0.01 0.01 0.01 0.02 0.03 0.05 0.07 0.09 0.10 0.11 0.10 0.09 0.07 0.05 0.03 0.03 0.03 0.01 0.01 0.00 0.01 0.02 0.05 0.09 0.10 0.09 0.08 0.06
0.04 0.04 0.03 0.03 0.03 0.04 0.03 0.03 0.02 0.02 0.03 0.03 0.04 0.03 0.03 0.04 0.04 0.04 0.04 0.05 0.06 0.09 0.12 0.15 0.17 0.18 0.16 0.13 0.09 0.05 0.04 0.05 0.03 0.02 0.01 0.02 0.03 0.05 0.10 0.12 0.12 0.11 0.09
0.08 0.08 0.08 0.07 0.07 0.07 0.07 0.05 0.06 0.06 0.06 0.08 0.09 0.08 0.08 0.11 0.17 0.18 0.13 0.10 0.10 0.13 0.15 0.17 0.20 0.23 0.25 0.23 0.17 0.09 0.07 0.07 0.04 0.04 0.03 0.04 0.06 0.06 0.10 0.14 0.13 0.12 0.11
0.09 0.11 0.15 0.15 0.13 0.13 0.14 0.13 0.14 0.19 0.21 0.25 0.26 0.23 0.24 0.23 0.25 0.28 0.26 0.24 0.22 0.19 0.20 0.22 0.23 0.25 0.25 0.24 0.21 0.15 0.12 0.10 0.09 0.09 0.07 0.07 0.08 0.09 0.11 0.15 0.18 0.15 0.13
0.09 0.11 0.17 0.18 0.16 0.22 0.30 0.33 0.32 0.36 0.37 0.40 0.39 0.36 0.32 0.27 0.25 0.28 0.28 0.28 0.27 0.22 0.20 0.20 0.21 0.21 0.22 0.23 0.18 0.16 0.14 0.11 0.10 0.10 0.09 0.09 0.07 0.08 0.11 0.12 0.15 0.15 0.15
0.10 0.11 0.14 0.16 0.22 0.37 0.49 0.47 0.40 0.40 0.41 0.42 0.37 0.30 0.26 0.24 0.23 0.25 0.26 0.25 0.26 0.23 0.21 0.19 0.17 0.16 0.16 0.18 0.19 0.19 0.16 0.14 0.12 0.10 0.09 0.09 0.09 0.07 0.07 0.11 0.14 0.14 0.15
0.11 0.13 0.15 0.20 0.28 0.39 0.43 0.45 0.49 0.45 0.40 0.31 0.22 0.20 0.21 0.20 0.20 0.23 0.22 0.21 0.22 0.23 0.22 0.19 0.14 0.13 0.14 0.16 0.15 0.14 0.14 0.13 0.11 0.12 0.10 0.08 0.07 0.07 0.07 0.09 0.14 0.15 0.18
0.12 0.12 0.14 0.20 0.29 0.34 0.35 0.35 0.28 0.28 0.23 0.19 0.15 0.13 0.13 0.13 0.14 0.17 0.17 0.17 0.16 0.15 0.15 0.16 0.16 0.14 0.12 0.12 0.13 0.10 0.08 0.08 0.09 0.10 0.10 0.09 0.07 0.07 0.07 0.07 0.10 0.12 0.15
0.08 0.09 0.10 0.12 0.15 0.17 0.18 0.18 0.17 0.15 0.14 0.13 0.11 0.09 0.09 0.09 0.09 0.09 0.09 0.11 0.12 0.11 0.12 0.12 0.11 0.11 0.09 0.10 0.12 0.09 0.08 0.07 0.06 0.05 0.07 0.08 0.07 0.06 0.08 0.08 0.09 0.08 0.07
0.05 0.05 0.06 0.08 0.10 0.08 0.06 0.05 0.05 0.06 0.08 0.10 0.10 0.09 0.08 0.07 0.06 0.06 0.06 0.07 0.08 0.09 0.09 0.08 0.07 0.06 0.07 0.09 0.10 0.11 0.08 0.06 0.04 0.03 0.04 0.04 0.04 0.06 0.07 0.07 0.07 0.08 0.06
0.05 0.04 0.05 0.07 0.06 0.04 0.03 0.03 0.03 0.06 0.08 0.09 0.09 0.07 0.07 0.09 0.08 0.05 0.04 0.03 0.03 0.03 0.03 0.03 0.04 0.04 0.05 0.07 0.09 0.10 0.08 0.05 0.05 0.04 0.03 0.03 0.04 0.05 0.06 0.08 0.07 0.07 0.08
0.02 0.01 0.01 0.02 0.02 0.02 0.01 0.01 0.01 0.01 0.02 0.03 0.04 0.03 0.03 0.04 0.05 0.04 0.03 0.02 0.01 0.01 0.00 0.01 0.01 0.01 0.03 0.04 0.05 0.07 0.08 0.07 0.06 0.05 0.04 0.04 0.05 0.05 0.05 0.05 0.06 0.07 0.08
0.00 0.00 0.01 0.01 0.01 0.01 0.01 0.01 0.01 0.00 0.00 0.01 0.01 0.01 0.01 0.02 0.02 0.02 0.02 0.01 0.01 0.00 0.00 0.00 0.00 0.01 0.01 0.03 0.04 0.06 0.08 0.08 0.07 0.05 0.04 0.04 0.05 0.05 0.06 0.05 0.05 0.06 0.06
0.00 0.00 0.00 0.01 0.01 0.01 0.01 0.01 0.01 0.00 0.00 0.00 0.00 0.00 0.01 0.01 0.01 0.01 0.01 0.01 0.01 0.00 0.00 0.00 0.01 0.01 0.01 0.01 0.01 0.03 0.05 0.07 0.07 0.06 0.04 0.04 0.05 0.05 0.05 0.06 0.05 0.05 0.05
MSLP
1009.67 1009.51 1009.52 1009.71 1010.03 1010.42 1010.81 1011.14 1011.37 1011.50 1011.57 1011.63 1011.75 1011.96 1012.28 1012.68 1013.12 1013.55 1013.91 1014.16 1014.31 1014.37 1014.37 1014.36 1014.38 1014.44 1014.55 1014.70 1014.87 1015.03 1015.19 1015.33 1015.47 1015.61 1015.76 1015.94 1016.14 1016.35 1016.56 1016.77 1016.98 1017.17 1017.37
1009.26 1009.20 1009.31 1009.58 1009.97 1010.42 1010.85 1011.20 1011.45 1011.59 1011.68 1011.76 1011.90 1012.14 1012.48 1012.90 1013.36 1013.78 1014.13 1014.38 1014.52 1014.58 1014.60 1014.61 1014.64 1014.71 1014.82 1014.96 1015.10 1015.24 1015.36 1015.48 1015.60 1015.75 1015.92 1016.12 1016.34 1016.57 1016.80 1017.02 1017.22 1017.41 1017.60
1008.83 1008.87 1009.07 1009.43 1009.90 1010.42 1010.90 1011.30 1011.58 1011.75 1011.87 1011.98 1012.14 1012.39 1012.74 1013.15 1013.58 1013.98 1014.31 1014.54 1014.67 1014.74 1014.78 1014.81 1014.87 1014.97 1015.09 1015.23 1015.36 1015.47 1015.58 1015.68 1015.79 1015.94 1016.12 1016.34 1016.58 1016.82 1017.06 1017.27 1017.46 1017.64 1017.82
1008.46 1008.59 1008.89 1009.33 1009.88 1010.47 1011.01 1011.45 1011.77 1011.98 1012.13 1012.26 1012.43 1012.68 1013.01 1013.39 1013.78 1014.13 1014.42 1014.62 1014.75 1014.84 1014.90 1014.98 1015.08 1015.22 1015.36 1015.51 1015.63 1015.74 1015.82 1015.91 1016.02 1016.17 1016.37 1016.59 1016.84 1017.09 1017.32 1017.53 1017.71 1017.88 1018.05
1008.23 1008.45 1008.82 1009.33 1009.95 1010.58 1011.17 1011.65 1012.01 1012.25 1012.42 1012.56 1012.74 1012.98 1013.27 1013.60 1013.93 1014.24 1014.48 1014.66 1014.78 1014.89 1014.99 1015.12 1015.28 1015.46 1015.64 1015.80 1015.92 1016.02 1016.10 1016.18 1016.28 1016.43 1016.63 1016.87 1017.12 1017.36 1017.58 1017.78 1017.95 1018.11 1018.28
1008.20 1008.47 1008.89 1009.46 1010.11 1010.77 1011.37 1011.87 1012.25 1012.50 1012.69 1012.84 1013.02 1013.23 1013.49 1013.78 1014.05 1014.30 1014.50 1014.65 1014.79 1014.92 1015.07 1015.25 1015.47 1015.69 1015.91 1016.09 1016.22 1016.31 1016.38 1016.45 1016.55 1016.70 1016.89 1017.12 1017.37 1017.61 1017.82 1018.00 1018.16 1018.33 1018.51
1008.35 1008.66 1009.10 1009.68 1010.34 1010.99 1011.58 1012.07 1012.44 1012.70 1012.90 1013.06 1013.24 1013.44 1013.68 1013.92 1014.15 1014.35 1014.51 1014.65 1014.78 1014.94 1015.14 1015.38 1015.65 1015.92 1016.17 1016.36 1016.50 1016.59 1016.65 1016.71 1016.80 1016.94 1017.12 1017.34 1017.58 1017.80 1018.00 1018.18 1018.34 1018.51 1018.70
1008.67 1008.98 1009.43 1009.99 1010.60 1011.21 1011.76 1012.21 1012.56 1012.82 1013.02 1013.20 1013.39 1013.60 1013.82 1014.04 1014.23 1014.40 1014.53 1014.66 1014.80 1014.98 1015.21 1015.49 1015.80 1016.11 1016.39 1016.60 1016.75 1016.83 1016.88 1016.93 1017.00 1017.12 1017.29 1017.49 1017.71 1017.92 1018.11 1018.28 1018.45 1018.62 1018.84
1009.08 1009.39 1009.81 1010.32 1010.87 1011.41 1011.88 1012.28 1012.59 1012.84 1013.05 1013.26 1013.48 1013.71 1013.94 1014.15 1014.33 1014.46 1014.57 1014.68 1014.81 1015.00 1015.25 1015.56 1015.91 1016.24 1016.54 1016.77 1016.91 1017.00 1017.04 1017.07 1017.12 1017.22 1017.37 1017.55 1017.75 1017.95 1018.13 1018.30 1018.46 1018.65 1018.88
1009.53 1009.82 1010.21 1010.65 1011.12 1011.56 1011.95 1012.28 1012.55 1012.79 1013.03 1013.27 1013.53 1013.79 1014.05 1014.26 1014.43 1014.54 1014.62 1014.71 1014.82 1015.00 1015.25 1015.57 1015.93 1016.28 1016.59 1016.83 1016.98 1017.06 1017.09 1017.11 1017.15 1017.23 1017.35 1017.51 1017.69 1017.87 1018.05 1018.21 1018.39 1018.59 1018.84
1009.94 1010.23 1010.58 1010.96 1011.34 1011.68 1011.98 1012.24 1012.47 1012.71 1012.96 1013.24 1013.55 1013.85 1014.13 1014.36 1014.52 1014.61 1014.66 1014.71 1014.80 1014.95 1015.19 1015.50 1015.85 1016.20 1016.52 1016.76 1016.92 1017.00 1017.03 1017.04 1017.06 1017.12 1017.22 1017.36 1017.53 1017.70 1017.87 1018.04 1018.23 1018.44 1018.70
1010.30 1010.59 1010.91 1011.23 1011.52 1011.77 1011.99 1012.18 1012.38 1012.60 1012.88 1013.19 1013.54 1013.89 1014.19 1014.43 1014.58 1014.65 1014.67 1014.68 1014.72 1014.84 1015.04 1015.32 1015.66 1016.00 1016.31 1016.55 1016.71 1016.80 1016.83 1016.84 1016.85 1016.90 1016.98 1017.11 1017.26 1017.43 1017.60 1017.79 1017.99 1018.22 1018.50
1010.59 1010.89 1011.18 1011.45 1011.67 1011.84 1011.98 1012.12 1012.29 1012.50 1012.79 1013.13 1013.50 1013.87 1014.19 1014.43 1014.57 1014.62 1014.61 1014.58 1014.59 1014.67 1014.83 1015.07 1015.37 1015.69 1015.99 1016.22 1016.38 1016.46 1016.50 1016.50 1016.51 1016.55 1016.63 1016.75 1016.90 1017.07 1017.26 1017.46 1017.68 1017.94 1018.23
1010.80 1011.11 1011.38 1011.60 1011.76 1011.88 1011.96 1012.06 1012.19 1012.40 1012.68 1013.03 1013.41 1013.79 1014.11 1014.34 1014.47 1014.51 1014.48 1014.43 1014.41 1014.45 1014.57 1014.78 1015.04 1015.32 1015.58 1015.80 1015.94 1016.02 1016.05 1016.06 1016.07 1016.10 1016.18 1016.30 1016.45 1016.64 1016.85 1017.08 1017.32 1017.60 1017.91
1010.95 1011.25 1011.50 1011.68 1011.80 1011.87 1011.92 1011.98 1012.09 1012.28 1012.54 1012.88 1013.25 1013.61 1013.91 1014.14 1014.27 1014.30 1014.27 1014.23 1014.20 1014.22 1014.32 1014.48 1014.70 1014.94 1015.15 1015.33 1015.45 1015.51 1015.53 1015.53 1015.53 1015.57 1015.64 1015.77 1015.94 1016.14 1016.37 1016.63 1016.91 1017.21 1017.54
1011.03 1011.31 1011.53 1011.67 1011.76 1011.80 1011.83 1011.87 1011.96 1012.13 1012.36 1012.66 1012.99 1013.32 1013.60 1013.82 1013.95 1014.01 1014.01 1013.99 1013.98 1014.02 1014.10 1014.24 1014.41 1014.59 1014.76 1014.88 1014.96 1014.99 1014.98 1014.96 1014.96 1014.99 1015.06 1015.19 1015.37 1015.59 1015.84 1016.13 1016.44 1016.77 1017.12
1011.08 1011.29 1011.47 1011.58 1011.64 1011.67 1011.69 1011.72 1011.81 1011.95 1012.15 1012.40 1012.67 1012.95 1013.20 1013.41 1013.55 1013.65 1013.71 1013.75 1013.80 1013.86 1013.96 1014.07 1014.21 1014.33 1014.43 1014.49 1014.51 1014.50 1014.46 1014.42 1014.40 1014.41 1014.48 1014.60 1014.78 1015.00 1015.27 1015.57 1015.91 1016.26 1016.63
1011.09 1011.23 1011.34 1011.41 1011.45 1011.48 1011.51 1011.56 1011.63 1011.75 1011.91 1012.11 1012.32 1012.54 1012.76 1012.95 1013.12 1013.27 1013.40 1013.52 1013.64 1013.76 1013.88 1014.00 1014.10 1014.17 1014.20 1014.20 1014.16 1014.09 1014.01 1013.94 1013.89 1013.88 1013.93 1014.03 1014.19 1014.40 1014.66 1014.97 1015.31 1015.68 1016.06
1011.10 1011.14 1011.18 1011.21 1011.24 1011.27 1011.32 1011.39 1011.48 1011.59 1011.71 1011.85 1012.00 1012.15 1012.32 1012.50 1012.70 1012.90 1013.11 1013.32 1013.52 1013.70 1013.86 1013.98 1014.06 1014.09 1014.06 1014.00 1013.91 1013.79 1013.67 1013.57 1013.48 1013.44 1013.44 1013.51 1013.63 1013.80 1014.04 1014.32 1014.65 1015.02 1015.41
1011.13 1011.07 1011.03 1011.02 1011.03 1011.09 1011.17 1011.28 1011.39 1011.49 1011.59 1011.67 1011.75 1011.84 1011.96 1012.12 1012.32 1012.56 1012.84 1013.13 1013.40 1013.65 1013.85 1013.98 1014.04 1014.04 1013.98 1013.88 1013.74 1013.59 1013.44 1013.30 1013.19 1013.10 1013.06 1013.06 1013.11 1013.23 1013.41 1013.65 1013.95 1014.29 1014.68
1011.22 1011.07 1010.95 1010.89 1010.91 1010.98 1011.10 1011.25 1011.39 1011.51 1011.58 1011.62 1011.64 1011.66 1011.72 1011.84 1012.03 1012.28 1012.60 1012.93 1013.27 1013.56 1013.79 1013.93 1013.99 1013.98 1013.90 1013.78 1013.63 1013.47 1013.30 1013.15 1013.00 1012.87 1012.77 1012.70 1012.67 1012.70 1012.79 1012.96 1013.20 1013.51 1013.89
1011.42 1011.18 1010.99 1010.89 1010.89 1010.99 1011.15 1011.34 1011.52 1011.65 1011.71 1011.71 1011.67 1011.63 1011.62 1011.67 1011.82 1012.06 1012.37 1012.72 1013.07 1013.39 1013.63 1013.78 1013.85 1013.84 1013.77 1013.65 1013.52 1013.37 1013.22 1013.06 1012.90 1012.73 1012.56 1012.41 1012.28 1012.21 1012.20 1012.28 1012.45 1012.71 1013.05
1011.73 1011.42 1011.18 1011.04 1011.03 1011.14 1011.32 1011.55 1011.76 1011.90 1011.96 1011.93 1011.84 1011.73 1011.65 1011.63 1011.71 1011.89 1012.16 1012.48 1012.81 1013.11 1013.34 1013.50 1013.57 1013.58 1013.53 1013.45 1013.36 1013.25 1013.14 1013.00 1012.84 1012.64 1012.42 1012.19 1011.96 1011.77 1011.65 1011.63 1011.71 1011.91 1012.21
1012.17 1011.82 1011.53 1011.35 1011.32 1011.42 1011.61 1011.86 1012.09 1012.24 1012.30 1012.25 1012.11 1011.94 1011.78 1011.68 1011.67 1011.77 1011.96 1012.21 1012.48 1012.73 1012.94 1013.07 1013.15 1013.18 1013.17 1013.15 1013.12 1013.08 1013.02 1012.93 1012.79 1012.58 1012.31 1012.01 1011.69 1011.40 1011.16 1011.03 1011.02 1011.14 1011.39
1012.72 1012.34 1012.02 1011.80 1011.73 1011.80 1011.98 1012.22 1012.45 1012.61 1012.66 1012.59 1012.42 1012.19 1011.96 1011.77 1011.67 1011.67 1011.76 1011.92 1012.10 1012.28 1012.43 1012.55 1012.62 1012.67 1012.71 1012.75 1012.79 1012.83 1012.85 1012.81 1012.70 1012.50 1012.21 1011.86 1011.47 1011.08 1010.75 1010.52 1010.41 1010.45 1010.64
1013.34 1012.96 1012.60 1012.34 1012.22 1012.25 1012.39 1012.60 1012.81 1012.96 1012.99 1012.90 1012.70 1012.43 1012.14 1011.89 1011.70 1011.59 1011.58 1011.63 1011.72 1011.81 1011.90 1011.97 1012.03 1012.09 1012.17 1012.27 1012.39 1012.51 1012.60 1012.63 1012.57 1012.40 1012.11 1011.73 1011.29 1010.84 1010.43 1010.11 1009.92 1009.88 1009.99
Thickness
5821 5820 5816 5813 5809 5806 5803 5800 5797 5795 5792 5790 5787 5785 5782 5779 5776 5774 5772 5770 5769 5767 5766 5765 5763 5762 5761 5760 5759 5757 5756 5755 5753 5752 5750 5749 5748 5747 5746 5745 5743 5742 5741
5828 5821 5817 5812 5808 5804 5801 5798 5795 5792 5790 5787 5785 5783 5780 5777 5775 5772 5770 5769 5767 5766 5764 5763 5761 5760 5759 5758 5756 5755 5754 5753 5752 5751 5749 5748 5747 5745 5745 5744 5742 5741 5740
5828 5821 5816 5811 5807 5803 5799 5795 5792 5790 5787 5785 5782 5780 5778 5776 5773 5771 5769 5767 5765 5764 5762 5761 5759 5758 5757 5755 5754 5753 5752 5751 5750 5749 5748 5747 5745 5744 5743 5743 5741 5740 5739
5827 5821 5815 5809 5805 5801 5797 5793 5790 5787 5785 5782 5780 5777 5775 5773 5771 5769 5767 5765 5763 5762 5760 5758 5757 5755 5754 5753 5751 5750 5749 5748 5748 5747 5746 5745 5744 5743 5742 5741 5740 5739 5738
5824 5818 5813 5807 5803 5799 5795 5791 5788 5785 5782 5779 5777 5774 5772 5770 5768 5766 5764 5762 5761 5759 5757 5756 5754 5752 5751 5750 5749 5747 5747 5746 5745 5744 5743 5743 5743 5742 5741 5740 5739 5738 5737
5821 5816 5811 5805 5800 5796 5792 5788 5785 5782 5779 5776 5774 5772 5769 5767 5765 5763 5762 5760 5758 5756 5754 5753 5751 5749 5748 5747 5746 5744 5744 5743 5742 5742 5741 5741 5741 5740 5740 5739 5738 5737 5736
5818 5813 5809 5803 5798 5794 5790 5786 5783 5779 5776 5774 5771 5769 5766 5764 5762 5760 5758 5756 5755 5753 5751 5750 5748 5747 5745 5743 5742 5741 5741 5740 5740 5739 5739 5738 5739 5738 5738 5737 5737 5736 5735
5815 5810 5805 5800 5795 5791 5787 5783 5780 5777 5774 5771 5768 5766 5763 5761 5759 5757 5756 5753 5752 5750 5748 5747 5745 5744 5742 5741 5739 5738 5738 5737 5737 5737 5737 5736 5736 5736 5736 5736 5735 5734 5734
5810 5805 5802 5797 5793 5788 5784 5780 5777 5774 5771 5769 5766 5763 5761 5759 5757 5755 5753 5751 5749 5747 5746 5744 5743 5741 5740 5738 5737 5736 5735 5735 5734 5734 5734 5734 5734 5734 5734 5734 5734 5733 5733
5803 5800 5797 5794 5790 5786 5782 5778 5774 5771 5768 5766 5763 5761 5759 5757 5755 5753 5751 5749 5747 5745 5743 5741 5740 5739 5737 5735 5734 5733 5732 5731 5731 5731 5732 5732 5733 5732 5732 5732 5732 5731 5731
5796 5794 5792 5789 5785 5781 5778 5775 5772 5768 5765 5763 5761 5759 5757 5755 5753 5751 5749 5746 5744 5742 5740 5738 5737 5736 5734 5733 5731 5731 5730 5729 5728 5728 5729 5730 5731 5731 5731 5731 5731 5730 5730
5789 5788 5786 5783 5780 5776 5773 5770 5768 5766 5763 5760 5757 5756 5754 5752 5749 5747 5745 5743 5742 5740 5738 5736 5734 5733 5731 5730 5729 5728 5728 5727 5726 5726 5727 5728 5729 5729 5730 5730 5730 5729 5729
5784 5782 5780 5777 5773 5770 5768 5765 5762 5760 5758 5755 5753 5751 5749 5746 5745 5743 5742 5740 5738 5737 5734 5733 5732 5730 5728 5727 5726 5725 5725 5725 5725 5725 5726 5726 5727 5728 5729 5729 5729 5728 5728
5777 5775 5773 5771 5767 5764 5760 5758 5757 5755 5752 5749 5747 5745 5743 5741 5740 5738 5737 5735 5733 5732 5731 5729 5728 5727 5726 5724 5723 5722 5723 5723 5724 5724 5724 5725 5726 5726 5727 5728 5728 5728 5727
5770 5768 5767 5766 5763 5759 5755 5752 5750 5748 5746 5743 5741 5739 5737 5736 5735 5733 5731 5730 5728 5727 5726 5726 5725 5724 5722 5721 5719 5719 5720 5722 5722 5723 5723 5724 5725 5726 5727 5727 5727 5727 5727
5765 5763 5762 5760 5757 5754 5749 5746 5744 5742 5739 5737 5734 5733 5732 5731 5731 5729 5727 5726 5724 5723 5722 5722 5723 5721 5720 5719 5718 5718 5719 5719 5720 5721 5722 5723 5725 5726 5726 5727 5727 5727 5727
5760 5759 5758 5755 5752 5747 5744 5741 5738 5736 5734 5731 5729 5729 5727 5727 5726 5725 5723 5721 5720 5719 5718 5718 5718 5718 5717 5717 5716 5717 5716 5717 5719 5720 5721 5722 5723 5724 5726 5726 5727 5727 5727
5754 5752 5751 5750 5746 5741 5738 5736 5734 5730 5728 5726 5726 5724 5724 5723 5722 5720 5718 5718 5717 5715 5714 5713 5713 5713 5713 5713 5713 5714 5714 5715 5717 5718 5719 5720 5721 5722 5724 5726 5727 5727 5727
5748 5746 5744 5743 5740 5736 5734 5731 5729 5725 5723 5722 5721 5719 5718 5718 5718 5716 5714 5714 5713 5711 5710 5709 5709 5708 5707 5707 5708 5710 5711 5712 5714 5716 5717 5718 5719 5720 5722 5723 5725 5726 5726
5741 5740 5738 5736 5733 5731 5728 5724 5721 5719 5718 5717 5716 5715 5714 5713 5712 5710 5708 5708 5707 5705 5704 5703 5702 5702 5702 5703 5704 5706 5707 5709 5711 5712 5714 5716 5717 5718 5719 5720 5722 5724 5725
5733 5731 5730 5728 5725 5723 5719 5715 5712 5711 5710 5710 5709 5708 5707 5706 5704 5703 5701 5700 5699 5698 5698 5698 5697 5696 5696 5697 5696 5697 5701 5705 5707 5710 5711 5713 5714 5715 5716 5718 5720 5722 5724
5725 5724 5722 5720 5718 5716 5713 5710 5707 5704 5702 5701 5700 5699 5697 5697 5695 5695 5694 5692 5691 5691 5690 5689 5689 5689 5689 5691 5689 5688 5689 5695 5702 5707 5709 5710 5712 5713 5714 5716 5718 5720 5721
5720 5718 5716 5713 5711 5709 5706 5703 5699 5695 5693 5691 5690 5689 5689 5688 5687 5686 5685 5684 5683 5682 5681 5681 5681 5680 5680 5682 5683 5682 5680 5683 5690 5699 5703 5706 5708 5709 5712 5713 5716 5718 5719
5716 5714 5711 5707 5704 5701 5698 5694 5690 5685 5682 5682 5680 5679 5679 5679 5678 5677 5677 5676 5674 5674 5673 5673 5674 5673 5672 5672 5673 5676 5677 5679 5679 5685 5693 5699 5702 5705 5707 5711 5714 5716 5717
5713 5710 5706 5702 5698 5694 5691 5687 5682 5678 5675 5673 5672 5670 5669 5669 5668 5668 5668 5667 5666 5665 5665 5665 5665 5664 5664 5664 5665 5666 5668 5670 5673 5675 5680 5687 5693 5699 5703 5707 5711 5714 5716
5708 5704 5699 5695 5690 5687 5683 5679 5675 5671 5668 5665 5663 5661 5659 5658 5658 5658 5658 5657 5657 5656 5656 5656 5656 5656 5656 5657 5657 5658 5660 5662 5664 5667 5672 5677 5682 5690 5696 5702 5706 5710 5713